Location: Crescent
(42.8242°N, 73.7329°W)
Time: 06:58:29
(UTC+00:00)

Tiros 1 - Pass Details

Date: 22 February 2026
Orbit: 618 x 649 km, 48.4° (Epoch: 9 March)

Event Time Altitude Azimuth Distance (km) Brightness Sun altitude
Rises 18:02:50 0° 292° (WNW) 2,895 10.5 35.7°
Reaches altitude 10° 18:05:17 10° 284° (WNW) 1,983 9.8 35.6°
Maximum altitude 18:09:25 35° 219° (SW) 1,005 10.0 35.4°
Drops below altitude 10° 18:13:31 10° 154° (SSE) 1,970 10.3 35.1°
Sets 18:15:58 0° 145° (SE) 2,873 10.9 35.0°
